[[{"header":{"parameterUnit":"m.s-1","parameterCategory":1,"la1":30.2991,"la2":30.254,"lo1":-89.0895,"lo2":-89.0444,"dy":0.0017,"dx":0.0017,"nx":28,"ny":28,"refTime":"2023-11-01T09:00:00:Z","depth":0,"parameterNumber":2,"parameterNumberName":"U-component_of_WINDS"},"data":[0,0,0,0,0,0,0,0,0,0,0,0,0,0,0,0,0,0,0,0,0,0,0,0,0,0,0,0,0,0,0,0,0,0,0,0,0,0,0,0,0,0,0,0,0,0,0,0,0,0,0,0,0,0,0,0,0,0,0.1425,0.1424,0,0.1358,0.1358,0.1357,0.136,0.1361,0.1362,0.1363,0.1291,0.1288,0.1285,0,0,0,0,0,0,0,0,0,0,0,0,0,0.1553,0.155,0.1425,0.1424,0.1424,0.1359,0.1358,0.1357,0.136,0.1361,0.1362,0.1363,0.1292,0.1288,0.1285,0,0,0,0,0,0,0,0,0,0,0,0,0,0.1493,0.155,0.1425,0.1417,0.1416,0.1359,0.1358,0.1356,0.1359,0.1361,0.1362,0.1364,0.1293,0.1289,0.1285,0.123,0,0,0.1272,0.127,0,0,0,0,0,0,0,0,0.1496,0.1488,0.1419,0.1418,0.1416,0.1369,0.1376,0.1314,0.1359,0.1381,0.1363,0.1364,0.1315,0.131,0.1294,0.1227,0.1224,0.1271,0.1269,0.1267,0.1266,0,0,0,0,0,0,0,0.15,0.1491,0.1399,0.1418,0.1416,0.1416,0.1409,0.1364,0.1341,0.1379,0.1379,0.1371,0.1315,0.1298,0.1292,0.1223,0.1272,0.1268,0.1265,0.1264,0.1107,0.1106,0,0,0,0,0,0,0.1507,0.1494,0.1401,0.1397,0.1461,0.1413,0.1405,0.1383,0.1341,0.1336,0.137,0.1372,0.1304,0.1297,0.129,0.1222,0.1267,0.1263,0.1261,0.1109,0.1107,0.1105,0,0,0,0,0,0,0.1509,0.1498,0.1403,0.1446,0.1433,0.1409,0.1384,0.1381,0.1363,0.1335,0.133,0.1357,0.1305,0.1295,0.1245,0.122,0.1261,0.1257,0.1111,0.1108,0.1106,0.1087,0,0,0,0,0,0,0.1513,0.1499,0.1479,0.1445,0.1431,0.1361,0.1382,0.1378,0.1357,0.1358,0.1321,0.1317,0.1305,0.1251,0.1241,0.1215,0.1254,0.1113,0.111,0.1107,0.109,0.1084,0.108,0,0,0,0,0,0.1517,0.1475,0.1477,0.1466,0.1405,0.1359,0.1351,0.134,0.1355,0.1333,0.1315,0.1318,0.1225,0.1246,0.1234,0.1206,0.1114,0.1111,0.1107,0.1092,0.1086,0.108,0,0,0,0,0,0,0.1505,0.1471,0.1473,0.1419,0.1392,0.136,0.1332,0.1333,0.1301,0.1304,0.1291,0.1282,0.1232,0.1214,0.1239,0.1152,0.1171,0.1165,0.1164,0.1158,0.1153,0.1157,0.1251,0,0,0,0,0,0.1496,0.1462,0.1434,0.1389,0.1376,0.1357,0.1336,0.133,0.1302,0.129,0.1268,0.1239,0.1203,0.118,0.1146,0.1089,0.108,0.1064,0.1059,0.1055,0.1049,0.1017,0.1009,0.1093,0.1093,0.1093,0,0,0.1476,0.1454,0.1433,0.1386,0.1365,0.1329,0.1347,0.1308,0.1282,0.1284,0.1234,0.1218,0.1185,0.1131,0.1106,0.1115,0.1024,0.105,0.1047,0.1043,0.1012,0.1004,0.0997,0.1091,0.1091,0.1091,0,0,0.1423,0.1403,0.1363,0.1342,0.131,0.1298,0.1288,0.1256,0.1245,0.1197,0.1197,0.1165,0.1104,0.1081,0.1061,0.1001,0.1001,0.099,0.0962,0.0931,0.0924,0.0918,0.0895,0.0887,0.0985,0.0984,0.0984,0,0.1402,0.135,0.1342,0.1304,0.1282,0.1285,0.1244,0.1223,0.1181,0.1166,0.1178,0.1101,0.1079,0.102,0.1005,0.0989,0.0977,0.0992,0.0926,0.092,0.0914,0.0892,0.0884,0.0983,0.0983,0.0983,0.0984,0,0.1325,0.1289,0.1261,0.1221,0.1197,0.1158,0.1143,0.112,0.1117,0.1103,0.1053,0.1028,0.0988,0.0974,0.097,0.0914,0.092,0.0929,0.0948,0.0905,0.0884,0.0875,0.0981,0.0982,0.0982,0.0982,0,0,0.1259,0.1218,0.1207,0.1189,0.1155,0.1126,0.1087,0.105,0.1029,0.1001,0.0967,0.0916,0.0925,0.0902,0.0896,0.0869,0.0822,0.0881,0.088,0.0869,0.0756,0.0748,0.0738,0.0824,0.0822,0.0821,0.0759,0,0.12,0.1131,0.1124,0.1061,0.1027,0.103,0.0996,0.0971,0.0958,0.0927,0.0912,0.0876,0.0891,0.0877,0.0851,0.0833,0.0798,0.0838,0.079,0.0788,0.0795,0.0728,0.0718,0.0661,0.075,0.0749,0.0748,0,0.1121,0.1092,0.1027,0.0998,0.0984,0.0953,0.0918,0.0889,0.0861,0.0853,0.0829,0.0827,0.0786,0.0809,0.0751,0.0778,0.0759,0.0748,0.0745,0.0738,0.0763,0.0716,0.0642,0.0633,0.0735,0.0736,0.0737,0,0.1077,0.1021,0.0975,0.096,0.0926,0.0904,0.0889,0.0863,0.0841,0.0811,0.0796,0.0761,0.0742,0.0715,0.0703,0.0721,0.0646,0.0668,0.0637,0.0637,0.0618,0.0619,0.0537,0.061,0.061,0.061,0.061,0,0.101,0.097,0.0955,0.0926,0.0881,0.0873,0.0828,0.0814,0.0791,0.0759,0.076,0.0729,0.0717,0.0685,0.0676,0.0629,0.062,0.0612,0.0609,0.061,0.0611,0.0595,0.0598,0.0608,0.0608,0.0609,0.0609,0,0.0951,0.094,0.089,0.0862,0.0855,0.0822,0.0798,0.077,0.0759,0.0718,0.0708,0.069,0.0652,0.0639,0.0592,0.0586,0.0531,0.0533,0.054,0.0539,0.0508,0.051,0.0411,0.0397,0.0481,0.048,0.048,0,0.0908,0.0877,0.0848,0.0827,0.0811,0.0777,0.0756,0.0748,0.0725,0.0692,0.0667,0.063,0.0599,0.0539,0.052,0.0485,0.0485,0.0453,0.0479,0.0481,0.0482,0.0483,0.0479,0.0447,0.0446,0.0445,0.0445,0,0.0833,0.0829,0.0798,0.0765,0.074,0.0713,0.0688,0.0671,0.0659,0.0633,0.0595,0.0572,0.0525,0.0488,0.0452,0.0436,0.0437,0.0437,0.0428,0.0426,0.0431,0.0426,0.0524,0.0439,0.0439,0.044,0.044,0.044,0.0779,0.0751,0.0726,0.0692,0.0672,0.0649,0.0621,0.0607,0.0576,0.0538,0.0535,0.0494,0.0467,0.042,0.0402,0.0369,0.0377,0.0364,0.036,0.0356,0.0353,0.0439,0.0363,0.0363,0.0363,0.0363,0.0363,0,0.0701,0.0686,0.0655,0.0619,0.0592,0.06,0.0572,0.0548,0.0512,0.0488,0.0459,0.0415,0.0379,0.0359,0.0323,0.0301,0.0301,0.0291,0.0291,0.0287,0.0348,0.0359,0.0292,0.0292,0.0292,0.0292,0.0292,0.0292,0.0657,0.0611,0.0605,0.0549,0.0534,0.0494,0.0477,0.0455,0.0436,0.0388,0.0358,0.0346,0.0324,0.0286,0.0254,0.0249,0.0234,0.0224,0.0219,0.0276,0.0283,0.029,0.03,0.0221,0.0221,0.0161,0.016,0.016]},{"header":{"parameterUnit":"m.s-1","parameterCategory":1,"la1":30.2991,"la2":30.254,"lo1":-89.0895,"lo2":-89.0444,"dy":0.0017,"dx":0.0017,"nx":28,"ny":28,"refTime":"2023-11-01T09:00:00:Z","depth":0,"parameterNumber":3,"parameterNumberName":"V-component_of_WINDS"},"data":[0,0,0,0,0,0,0,0,0,0,0,0,0,0,0,0,0,0,0,0,0,0,0,0,0,0,0,0,0,0,0,0,0,0,0,0,0,0,0,0,0,0,0,0,0,0,0,0,0,0,0,0,0,0,0,0,0,0,-9.6864,-9.6867,0,-9.7103,-9.7106,-9.7109,-9.7006,-9.7,-9.6994,-9.6989,-9.7227,-9.7238,-9.725,0,0,0,0,0,0,0,0,0,0,0,0,0,-9.6312,-9.6323,-9.6864,-9.6867,-9.687,-9.7103,-9.7106,-9.7109,-9.7007,-9.7,-9.6993,-9.6986,-9.7223,-9.7237,-9.7251,0,0,0,0,0,0,0,0,0,0,0,0,0,-9.6551,-9.6326,-9.6863,-9.6847,-9.6848,-9.7102,-9.7106,-9.711,-9.7008,-9.7,-9.6991,-9.6983,-9.7218,-9.7235,-9.7253,-9.7535,0,0,-9.7306,-9.7314,0,0,0,0,0,0,0,0,-9.6538,-9.6572,-9.6846,-9.6849,-9.685,-9.7016,-9.6998,-9.7252,-9.7011,-9.6947,-9.6989,-9.6979,-9.7163,-9.7185,-9.7248,-9.7546,-9.7556,-9.7308,-9.7319,-9.7326,-9.7331,0,0,0,0,0,0,0,-9.6521,-9.6561,-9.6958,-9.685,-9.6853,-9.6826,-9.685,-9.7046,-9.7101,-9.6952,-9.6945,-9.6975,-9.7162,-9.7232,-9.7253,-9.756,-9.7307,-9.7323,-9.7334,-9.7341,-9.8101,-9.811,0,0,0,0,0,0,-9.6506,-9.6548,-9.6951,-9.6965,-9.667,-9.6843,-9.687,-9.6971,-9.7098,-9.7109,-9.6983,-9.697,-9.7206,-9.7233,-9.7261,-9.7601,-9.7326,-9.7342,-9.7353,-9.8091,-9.8103,-9.8114,0,0,0,0,0,0,-9.6494,-9.6543,-9.6941,-9.6755,-9.6804,-9.6861,-9.6976,-9.6981,-9.705,-9.7121,-9.713,-9.7044,-9.72,-9.7236,-9.7468,-9.7608,-9.735,-9.7366,-9.808,-9.8095,-9.8108,-9.8282,0,0,0,0,0,0,-9.6479,-9.6539,-9.6649,-9.6758,-9.6814,-9.7147,-9.6985,-9.6992,-9.7081,-9.7067,-9.7181,-9.7192,-9.7196,-9.7443,-9.7486,-9.7627,-9.738,-9.8068,-9.8087,-9.8104,-9.8264,-9.8301,-9.8332,0,0,0,0,0,-9.646,-9.6686,-9.6655,-9.6704,-9.6952,-9.7155,-9.7187,-9.7189,-9.7093,-9.7203,-9.7249,-9.7188,-9.7585,-9.7467,-9.7515,-9.7664,-9.8059,-9.8081,-9.8102,-9.8249,-9.8294,-9.8331,0,0,0,0,0,0,-9.6588,-9.67,-9.6666,-9.6936,-9.7037,-9.7137,-9.7276,-9.7236,-9.7365,-9.7346,-9.7341,-9.7367,-9.7608,-9.7658,-9.7525,-9.7944,-9.7807,-9.7839,-9.7902,-9.7945,-9.7978,-9.7962,-9.7395,0,0,0,0,0,-9.6649,-9.6806,-9.6894,-9.7123,-9.7176,-9.7218,-9.7306,-9.7299,-9.7403,-9.7445,-9.7507,-9.7608,-9.7756,-9.7853,-9.7992,-9.827,-9.8294,-9.8396,-9.843,-9.8458,-9.8486,-9.8637,-9.8684,-9.8185,-9.8185,-9.8184,0,0,-9.6774,-9.6854,-9.6954,-9.7151,-9.7229,-9.7391,-9.7254,-9.743,-9.755,-9.747,-9.7694,-9.7744,-9.7856,-9.8113,-9.8229,-9.8163,-9.8629,-9.8485,-9.8507,-9.852,-9.8665,-9.8712,-9.8754,-9.82,-9.8197,-9.8195,0,0,-9.7085,-9.7162,-9.7362,-9.7443,-9.7564,-9.759,-9.7638,-9.7745,-9.7776,-9.8001,-9.7945,-9.8086,-9.834,-9.8423,-9.8498,-9.8842,-9.8791,-9.8887,-9.9064,-9.9212,-9.9252,-9.9287,-9.941,-9.9454,-9.8914,-9.8915,-9.8915,0,-9.7225,-9.7469,-9.7469,-9.7652,-9.774,-9.7678,-9.788,-9.7957,-9.8116,-9.8178,-9.8102,-9.8421,-9.8491,-9.8767,-9.8851,-9.8914,-9.8968,-9.8874,-9.9246,-9.9281,-9.9314,-9.9432,-9.9478,-9.8926,-9.8925,-9.8924,-9.8923,0,-9.7635,-9.7805,-9.7952,-9.811,-9.8215,-9.8406,-9.8433,-9.8539,-9.8523,-9.8557,-9.8787,-9.887,-9.9026,-9.909,-9.9075,-9.9365,-9.932,-9.9246,-9.9108,-9.9373,-9.9483,-9.9528,-9.8942,-9.8938,-9.8935,-9.8932,0,0,-9.8035,-9.8192,-9.8246,-9.8318,-9.8446,-9.8577,-9.8764,-9.8919,-9.901,-9.9121,-9.9278,-9.9495,-9.9428,-9.9514,-9.9507,-9.9637,-9.9905,-9.9546,-9.9549,-9.9611,-10.023,-10.0287,-10.0339,-9.9872,-9.9881,-9.9887,-10.0221,0,-9.8357,-9.8689,-9.8695,-9.8999,-9.9156,-9.9099,-9.9262,-9.9358,-9.9395,-9.9531,-9.9569,-9.9725,-9.9623,-9.9675,-9.98,-9.9846,-10.003,-9.9822,-10.0017,-10.0024,-9.9993,-10.0396,-10.0457,-10.0767,-10.0264,-10.0271,-10.0277,0,-9.8777,-9.8906,-9.9226,-9.9334,-9.9399,-9.9547,-9.969,-9.9822,-9.9928,-9.9945,-10.0042,-10.0017,-10.0206,-10.0063,-10.0324,-10.0183,-10.0262,-10.0297,-10.0309,-10.0328,-10.0167,-10.0428,-10.0866,-10.0914,-10.0345,-10.0339,-10.0334,0,-9.9038,-9.929,-9.9516,-9.9578,-9.9709,-9.9814,-9.9872,-9.9971,-10.0064,-10.0188,-10.0248,-10.0392,-10.0471,-10.0582,-10.0595,-10.0489,-10.0858,-10.0715,-10.0877,-10.0877,-10.0958,-10.0953,-10.1417,-10.1008,-10.1007,-10.1006,-10.1005,0,-9.9398,-9.9597,-9.9635,-9.9774,-9.9994,-9.9998,-10.0215,-10.0265,-10.0353,-10.0499,-10.0457,-10.0594,-10.0603,-10.0744,-10.0755,-10.097,-10.1005,-10.1024,-10.1025,-10.1029,-10.1027,-10.1082,-10.1061,-10.1018,-10.1016,-10.1013,-10.1011,0,-9.9727,-9.9761,-10.0003,-10.0107,-10.0138,-10.0296,-10.0384,-10.0516,-10.0548,-10.0734,-10.0777,-10.0827,-10.0991,-10.1015,-10.1205,-10.1213,-10.1471,-10.1449,-10.1437,-10.1434,-10.1595,-10.158,-10.2112,-10.2182,-10.1725,-10.173,-10.1733,0,-9.9956,-10.0108,-10.0229,-10.0326,-10.0391,-10.0545,-10.0641,-10.065,-10.0751,-10.0885,-10.1001,-10.116,-10.1288,-10.1552,-10.1604,-10.1749,-10.1731,-10.1907,-10.1752,-10.1752,-10.1735,-10.1727,-10.1742,-10.1937,-10.1942,-10.1946,-10.195,0,-10.0358,-10.0367,-10.0508,-10.0657,-10.0773,-10.0889,-10.0998,-10.1079,-10.1101,-10.1217,-10.1385,-10.1485,-10.1681,-10.184,-10.1985,-10.2042,-10.2001,-10.1998,-10.2043,-10.205,-10.2038,-10.2048,-10.152,-10.1986,-10.1982,-10.198,-10.1978,-10.1976,-10.0644,-10.0778,-10.0885,-10.1044,-10.1127,-10.1231,-10.1361,-10.141,-10.1552,-10.1714,-10.1709,-10.1895,-10.1997,-10.2187,-10.2255,-10.2398,-10.2341,-10.2406,-10.2423,-10.2439,-10.2456,-10.2014,-10.2424,-10.2423,-10.2422,-10.2421,-10.2421,0,-10.1046,-10.1112,-10.1258,-10.1415,-10.154,-10.1491,-10.161,-10.1717,-10.1882,-10.1982,-10.211,-10.2303,-10.2457,-10.2522,-10.2673,-10.2776,-10.276,-10.2815,-10.2808,-10.2822,-10.2498,-10.2445,-10.2825,-10.2825,-10.2825,-10.2825,-10.2825,-10.2825,-10.1269,-10.1493,-10.1515,-10.1779,-10.1843,-10.2027,-10.2099,-10.2194,-10.2274,-10.2493,-10.2622,-10.2664,-10.275,-10.2907,-10.3046,-10.3061,-10.3119,-10.3183,-10.319,-10.2886,-10.2845,-10.2806,-10.2756,-10.3195,-10.3196,-10.3502,-10.3505,-10.3507]}]]